[[{"header":{"parameterUnit":"m.s-1","parameterCategory":1,"la1":30.2991,"la2":30.254,"lo1":-89.0895,"lo2":-89.0444,"dy":0.0017,"dx":0.0017,"nx":28,"ny":28,"refTime":"2025-06-21T03:00:00:Z","depth":0,"parameterNumber":2,"parameterNumberName":"U-component_of_WINDS"},"data":[0,0,0,0,0,0,0,0,0,0,0,0,0,0,0,0,0,0,0,0,0,0,0,0,0,0,0,0,0,0,0,0,0,0,0,0,0,0,0,0,0,0,0,0,0,0,0,0,0,0,0,0,0,0,0,0,0,0,-2.5453,-2.5452,0,-2.5389,-2.5389,-2.5388,-2.5253,-2.525,-2.5247,-2.5245,-2.5184,-2.5185,-2.5186,0,0,0,0,0,0,0,0,0,0,0,0,0,-2.5462,-2.5462,-2.5453,-2.5452,-2.5451,-2.5389,-2.5389,-2.5388,-2.5253,-2.525,-2.5246,-2.5243,-2.5184,-2.5185,-2.5186,0,0,0,0,0,0,0,0,0,0,0,0,0,-2.5434,-2.5462,-2.5453,-2.5376,-2.5369,-2.539,-2.5388,-2.5387,-2.5254,-2.525,-2.5246,-2.5242,-2.5183,-2.5185,-2.5186,-2.5277,0,0,-2.519,-2.5191,0,0,0,0,0,0,0,0,-2.5436,-2.5434,-2.5389,-2.5382,-2.5373,-2.5324,-2.5369,-2.5351,-2.5255,-2.5298,-2.5244,-2.524,-2.5234,-2.5231,-2.5228,-2.5274,-2.5272,-2.519,-2.5191,-2.5192,-2.5192,0,0,0,0,0,0,0,-2.5438,-2.5436,-2.5428,-2.5388,-2.5379,-2.5347,-2.5338,-2.5365,-2.529,-2.5294,-2.5284,-2.5278,-2.5229,-2.5228,-2.5226,-2.5271,-2.519,-2.5192,-2.5193,-2.5193,-2.5389,-2.5393,0,0,0,0,0,0,-2.545,-2.5439,-2.543,-2.5426,-2.5395,-2.535,-2.534,-2.5345,-2.5289,-2.5277,-2.5281,-2.5272,-2.5227,-2.5225,-2.5224,-2.5327,-2.5192,-2.5193,-2.5194,-2.5384,-2.539,-2.5394,0,0,0,0,0,0,-2.5451,-2.5451,-2.5432,-2.5429,-2.5425,-2.5354,-2.536,-2.5345,-2.5343,-2.528,-2.5266,-2.5293,-2.5224,-2.5221,-2.5265,-2.5323,-2.5194,-2.5195,-2.5379,-2.5386,-2.5392,-2.5534,0,0,0,0,0,0,-2.5452,-2.5452,-2.5485,-2.5431,-2.5425,-2.5474,-2.5363,-2.5347,-2.5345,-2.5332,-2.5287,-2.5276,-2.522,-2.5263,-2.5266,-2.5322,-2.5196,-2.5374,-2.5382,-2.539,-2.5524,-2.5545,-2.5563,0,0,0,0,0,-2.5453,-2.5528,-2.5487,-2.5487,-2.5465,-2.5477,-2.5474,-2.5407,-2.5351,-2.5384,-2.5343,-2.5277,-2.5316,-2.5269,-2.5271,-2.5329,-2.537,-2.538,-2.5389,-2.5515,-2.5541,-2.5562,0,0,0,0,0,0,-2.5592,-2.552,-2.5474,-2.5534,-2.5513,-2.5454,-2.5494,-2.5436,-2.5432,-2.542,-2.5339,-2.533,-2.5384,-2.536,-2.5309,-2.5414,-2.5332,-2.5343,-2.5428,-2.5451,-2.547,-2.5475,-2.5197,0,0,0,0,0,-2.563,-2.5645,-2.5581,-2.564,-2.5632,-2.5566,-2.5568,-2.5519,-2.5494,-2.5485,-2.5447,-2.5427,-2.5435,-2.5441,-2.5445,-2.552,-2.5509,-2.5561,-2.558,-2.5596,-2.5607,-2.5645,-2.5668,-2.5426,-2.5426,-2.5426,0,0,-2.5708,-2.567,-2.5685,-2.5668,-2.5645,-2.5664,-2.5559,-2.5583,-2.5596,-2.5489,-2.5527,-2.5499,-2.5471,-2.5531,-2.5556,-2.5513,-2.5671,-2.5609,-2.5622,-2.5623,-2.5658,-2.5681,-2.5701,-2.5433,-2.5432,-2.5431,0,0,-2.586,-2.5833,-2.5879,-2.5859,-2.5826,-2.5781,-2.5792,-2.5743,-2.572,-2.5756,-2.5676,-2.5692,-2.5706,-2.569,-2.5684,-2.583,-2.5769,-2.5834,-2.5935,-2.5973,-2.5992,-2.6009,-2.6062,-2.6081,-2.5844,-2.5844,-2.5845,0,-2.5962,-2.5985,-2.5911,-2.5939,-2.5935,-2.5837,-2.5885,-2.5869,-2.584,-2.584,-2.5792,-2.5808,-2.5783,-2.5837,-2.5873,-2.5871,-2.5882,-2.5838,-2.5995,-2.6011,-2.6025,-2.6075,-2.6095,-2.5852,-2.5851,-2.5851,-2.585,0,-2.6112,-2.6129,-2.6171,-2.6144,-2.6144,-2.6182,-2.6115,-2.6124,-2.6075,-2.6036,-2.6075,-2.6041,-2.6036,-2.6045,-2.5998,-2.6094,-2.6068,-2.601,-2.5926,-2.6058,-2.6103,-2.6121,-2.5864,-2.5861,-2.5859,-2.5857,0,0,-2.635,-2.6281,-2.6297,-2.6284,-2.6241,-2.6254,-2.6288,-2.6282,-2.6292,-2.6275,-2.6303,-2.6318,-2.6262,-2.6256,-2.6205,-2.624,-2.6359,-2.6176,-2.6174,-2.6212,-2.6463,-2.6508,-2.6531,-2.6318,-2.6321,-2.6324,-2.6466,0,-2.6492,-2.6545,-2.648,-2.6548,-2.6564,-2.6472,-2.6502,-2.648,-2.6444,-2.6454,-2.6414,-2.6426,-2.6353,-2.6348,-2.6377,-2.6338,-2.6408,-2.6327,-2.6344,-2.6346,-2.6354,-2.6555,-2.6602,-2.6738,-2.6483,-2.6486,-2.6488,0,-2.6665,-2.6655,-2.6725,-2.6677,-2.6682,-2.671,-2.6699,-2.6709,-2.6682,-2.6654,-2.6647,-2.6586,-2.6618,-2.6537,-2.658,-2.6526,-2.653,-2.6512,-2.6515,-2.6515,-2.6425,-2.656,-2.6779,-2.68,-2.6515,-2.6513,-2.6511,0,-2.6832,-2.6837,-2.6879,-2.687,-2.6816,-2.6838,-2.6817,-2.6786,-2.6787,-2.6778,-2.6778,-2.6774,-2.6772,-2.677,-2.6711,-2.6657,-2.6763,-2.6676,-2.6741,-2.6743,-2.6768,-2.6767,-2.6991,-2.677,-2.6769,-2.6769,-2.6769,0,-2.6998,-2.7044,-2.6953,-2.6979,-2.7029,-2.6954,-2.7006,-2.6975,-2.6948,-2.6968,-2.6889,-2.6909,-2.6829,-2.6842,-2.6796,-2.6839,-2.6839,-2.6818,-2.6806,-2.6825,-2.6828,-2.6827,-2.6816,-2.6774,-2.6773,-2.6772,-2.6771,0,-2.7193,-2.7134,-2.7174,-2.7119,-2.7106,-2.7146,-2.7099,-2.7122,-2.7081,-2.7107,-2.7109,-2.7046,-2.7056,-2.6997,-2.6997,-2.6966,-2.7033,-2.7004,-2.7042,-2.7033,-2.7102,-2.7096,-2.7333,-2.736,-2.7122,-2.7124,-2.7126,0,-2.7303,-2.7336,-2.7285,-2.7292,-2.7274,-2.7286,-2.7286,-2.7214,-2.7218,-2.719,-2.7217,-2.722,-2.7219,-2.7241,-2.7196,-2.7196,-2.7167,-2.725,-2.7166,-2.7186,-2.7169,-2.7168,-2.7171,-2.7267,-2.727,-2.7273,-2.7275,0,-2.7505,-2.7473,-2.7475,-2.7468,-2.747,-2.7461,-2.7447,-2.7457,-2.7379,-2.7388,-2.7397,-2.7396,-2.7396,-2.7401,-2.7392,-2.7371,-2.7311,-2.7301,-2.7316,-2.7337,-2.7358,-2.7348,-2.709,-2.7296,-2.7294,-2.7292,-2.7291,-2.729,-2.766,-2.7686,-2.7654,-2.7659,-2.7641,-2.7629,-2.7648,-2.7609,-2.7615,-2.7608,-2.7566,-2.7583,-2.7557,-2.7538,-2.7523,-2.7537,-2.7497,-2.752,-2.7525,-2.7532,-2.7544,-2.7356,-2.7535,-2.7534,-2.7534,-2.7533,-2.7533,0,-2.7858,-2.7833,-2.7838,-2.782,-2.7825,-2.7766,-2.7748,-2.7756,-2.7772,-2.7751,-2.7752,-2.7763,-2.7768,-2.7724,-2.7723,-2.7742,-2.7715,-2.7745,-2.7743,-2.7739,-2.7579,-2.7566,-2.7767,-2.7767,-2.7767,-2.7767,-2.7767,-2.7767,-2.7961,-2.8001,-2.7967,-2.7998,-2.7972,-2.7987,-2.7982,-2.7972,-2.7955,-2.7971,-2.7974,-2.7944,-2.7915,-2.7911,-2.7913,-2.79,-2.7904,-2.7944,-2.7922,-2.7773,-2.775,-2.7729,-2.7716,-2.7945,-2.7945,-2.808,-2.8082,-2.8083]},{"header":{"parameterUnit":"m.s-1","parameterCategory":1,"la1":30.2991,"la2":30.254,"lo1":-89.0895,"lo2":-89.0444,"dy":0.0017,"dx":0.0017,"nx":28,"ny":28,"refTime":"2025-06-21T03:00:00:Z","depth":0,"parameterNumber":3,"parameterNumberName":"V-component_of_WINDS"},"data":[0,0,0,0,0,0,0,0,0,0,0,0,0,0,0,0,0,0,0,0,0,0,0,0,0,0,0,0,0,0,0,0,0,0,0,0,0,0,0,0,0,0,0,0,0,0,0,0,0,0,0,0,0,0,0,0,0,0,0.6361,0.6361,0,0.6348,0.6348,0.6347,0.6388,0.6389,0.639,0.6391,0.6376,0.6375,0.6373,0,0,0,0,0,0,0,0,0,0,0,0,0,0.6423,0.6421,0.6362,0.6361,0.6361,0.6348,0.6348,0.6347,0.6387,0.6389,0.639,0.6392,0.6377,0.6375,0.6373,0,0,0,0,0,0,0,0,0,0,0,0,0,0.6401,0.6421,0.6362,0.638,0.6381,0.6348,0.6348,0.6347,0.6387,0.6389,0.6391,0.6393,0.6377,0.6375,0.6373,0.6321,0,0,0.6366,0.6365,0,0,0,0,0,0,0,0,0.6402,0.6399,0.6377,0.6378,0.638,0.6371,0.6364,0.6339,0.6387,0.6385,0.6391,0.6394,0.6373,0.6371,0.6365,0.6321,0.632,0.6366,0.6364,0.6363,0.6363,0,0,0,0,0,0,0,0.6404,0.64,0.6356,0.6377,0.6378,0.6388,0.6387,0.6359,0.6369,0.6385,0.6388,0.6386,0.6374,0.6367,0.6365,0.632,0.6366,0.6364,0.6362,0.6361,0.6233,0.6231,0,0,0,0,0,0,0.6403,0.6401,0.6357,0.6356,0.6396,0.6386,0.6385,0.6372,0.6369,0.637,0.6384,0.6388,0.637,0.6367,0.6364,0.6302,0.6363,0.6361,0.636,0.6235,0.6232,0.623,0,0,0,0,0,0,0.6404,0.6399,0.6357,0.6379,0.6374,0.6383,0.6368,0.6371,0.6363,0.6369,0.637,0.6375,0.6371,0.6367,0.6332,0.6303,0.636,0.6358,0.6237,0.6234,0.6231,0.6179,0,0,0,0,0,0,0.6406,0.6399,0.6379,0.6378,0.6373,0.6324,0.6367,0.6369,0.6359,0.6364,0.636,0.6361,0.6372,0.6335,0.6329,0.63,0.6356,0.624,0.6236,0.6232,0.6183,0.6175,0.6167,0,0,0,0,0,0.6408,0.6365,0.6378,0.6372,0.6349,0.6323,0.632,0.6334,0.6357,0.6337,0.6341,0.6361,0.6308,0.6331,0.6325,0.6295,0.6242,0.6237,0.6232,0.6187,0.6176,0.6168,0,0,0,0,0,0,0.6361,0.6365,0.6379,0.6335,0.6328,0.633,0.6305,0.6322,0.6308,0.6313,0.6331,0.633,0.629,0.629,0.6316,0.6245,0.6278,0.6272,0.6246,0.6236,0.6228,0.6228,0.6354,0,0,0,0,0,0.6346,0.6325,0.6329,0.629,0.6286,0.6296,0.6285,0.6297,0.629,0.6287,0.6288,0.6281,0.6263,0.625,0.6233,0.6185,0.6184,0.6161,0.6153,0.6147,0.614,0.6114,0.6103,0.6215,0.6215,0.6215,0,0,0.6314,0.6313,0.6299,0.6281,0.6277,0.6254,0.6293,0.6267,0.6251,0.6284,0.6249,0.625,0.6243,0.6201,0.6182,0.6199,0.611,0.6141,0.6136,0.6133,0.6108,0.6097,0.6088,0.6212,0.6213,0.6213,0,0,0.6243,0.6241,0.6208,0.6203,0.6197,0.6205,0.6197,0.6196,0.6197,0.6164,0.6188,0.6169,0.6137,0.613,0.6123,0.6052,0.607,0.6047,0.6003,0.5977,0.5968,0.596,0.5933,0.5923,0.6041,0.6041,0.6041,0,0.6203,0.617,0.6188,0.6161,0.6151,0.6182,0.6147,0.6143,0.6131,0.6124,0.6144,0.6104,0.6102,0.6058,0.6041,0.6035,0.6025,0.6045,0.5968,0.596,0.5953,0.5927,0.5917,0.6038,0.6038,0.6038,0.6039,0,0.6121,0.6098,0.6072,0.606,0.6048,0.6018,0.6031,0.6017,0.6031,0.6036,0.6001,0.6,0.5983,0.5975,0.5987,0.5932,0.5943,0.5965,0.5998,0.5939,0.5915,0.5905,0.6033,0.6034,0.6035,0.6036,0,0,0.6017,0.6017,0.6007,0.6002,0.5999,0.5981,0.5952,0.5936,0.5923,0.5916,0.5891,0.5864,0.5885,0.5877,0.589,0.5867,0.5809,0.5892,0.5892,0.5874,0.5746,0.5727,0.5716,0.5822,0.5821,0.5819,0.5746,0,0.5946,0.5895,0.5912,0.5861,0.5839,0.5869,0.5844,0.5839,0.5844,0.5826,0.5832,0.5811,0.5842,0.5837,0.5816,0.582,0.5783,0.5826,0.5798,0.5797,0.5795,0.5703,0.5683,0.5614,0.5737,0.5736,0.5734,0,0.5854,0.5843,0.579,0.579,0.5782,0.5759,0.5745,0.5729,0.5724,0.573,0.5721,0.5739,0.5711,0.5747,0.5708,0.5737,0.5727,0.5727,0.5725,0.572,0.576,0.5694,0.5593,0.5581,0.572,0.5721,0.5722,0,0.5781,0.5753,0.5717,0.5712,0.5713,0.5695,0.5695,0.5692,0.5682,0.5671,0.5664,0.565,0.5642,0.563,0.5644,0.5669,0.5602,0.564,0.5604,0.5604,0.5586,0.5586,0.5479,0.5584,0.5584,0.5585,0.5585,0,0.5697,0.5663,0.5684,0.5661,0.5624,0.5644,0.5607,0.561,0.5608,0.5586,0.5612,0.5592,0.5612,0.5594,0.5605,0.557,0.5566,0.5569,0.5571,0.5565,0.5564,0.5556,0.556,0.5582,0.5583,0.5583,0.5584,0,0.5607,0.562,0.5583,0.5587,0.5587,0.5559,0.5563,0.5542,0.555,0.5523,0.5518,0.553,0.5509,0.5523,0.5502,0.551,0.5463,0.5474,0.5464,0.5466,0.5429,0.5431,0.531,0.5294,0.5412,0.5411,0.541,0,0.5551,0.5525,0.5527,0.5515,0.5513,0.5493,0.5482,0.5502,0.549,0.5484,0.5464,0.5446,0.5432,0.5398,0.5405,0.539,0.5398,0.5357,0.5396,0.539,0.5395,0.5395,0.5392,0.5348,0.5347,0.5346,0.5345,0,0.545,0.5458,0.5442,0.5428,0.5415,0.5406,0.5398,0.5387,0.5407,0.5392,0.5372,0.5361,0.5341,0.5322,0.531,0.5309,0.5329,0.5333,0.5324,0.5315,0.5309,0.5309,0.5439,0.5335,0.5336,0.5337,0.5337,0.5338,0.5373,0.5351,0.5349,0.5331,0.5328,0.532,0.5301,0.5307,0.5291,0.5275,0.5289,0.5264,0.5261,0.5246,0.5244,0.5224,0.5241,0.5228,0.5224,0.5219,0.5213,0.5315,0.5223,0.5223,0.5223,0.5223,0.5224,0,0.5271,0.5271,0.5254,0.5243,0.5229,0.5252,0.5245,0.5231,0.5209,0.5205,0.5191,0.5168,0.5151,0.5157,0.5141,0.5125,0.5134,0.512,0.5119,0.5119,0.52,0.5209,0.5113,0.5113,0.5113,0.5113,0.5113,0.5113,0.5215,0.5179,0.5188,0.5151,0.5152,0.5128,0.5122,0.5115,0.5112,0.5085,0.5071,0.5076,0.5076,0.5061,0.5045,0.5048,0.504,0.5022,0.5027,0.5102,0.5113,0.5123,0.5131,0.5021,0.502,0.4947,0.4946,0.4946]}]]